Theta_e
314 314 314 313 312 310 310 311 312 312 311 314 316 315 315 313 313 313 313 312 310 309 311 314 317 319 319 320 321 325 329 329 330 332 333 334 333 334 334 334 335 333 332 333 334 333 327 323 322 320 320 318 320 323 321 322 323 325 328 330 330 331 330 329 329 325 324 324 318 316 319 324 324 317 317 318 318 321 322 323 325 326 327 328 329 329 331 333
314 314 314 314 312 311 311 310 310 310 310 312 314 315 315 315 313 313 314 313 311 310 310 312 315 318 319 320 321 322 325 326 327 330 332 332 333 333 334 334 335 336 335 335 336 336 333 329 323 320 319 318 320 322 321 321 322 325 330 330 330 332 330 328 328 324 323 325 320 317 318 322 323 320 318 320 321 321 322 323 324 325 327 329 329 329 331 332
315 314 314 314 313 312 310 310 309 309 309 309 312 314 315 315 313 312 313 314 313 311 310 311 313 316 318 319 321 322 322 324 326 328 330 331 332 333 333 333 334 335 336 336 336 336 333 326 321 322 320 318 320 321 322 322 322 325 328 329 331 331 328 326 325 324 322 322 320 317 316 318 320 319 319 320 322 322 321 322 323 324 324 327 330 330 332 332
315 315 314 314 314 313 311 310 309 308 308 308 309 312 314 314 313 312 313 313 313 312 311 311 312 314 317 318 321 323 323 325 327 326 328 331 331 332 333 333 333 334 335 335 335 331 327 321 319 322 321 319 320 321 322 322 323 324 326 329 330 328 328 327 324 323 320 318 319 318 315 317 318 318 320 320 322 322 322 321 322 323 322 326 331 331 332 333
316 315 314 313 313 313 312 311 309 308 307 307 307 310 312 313 313 313 312 313 313 313 312 311 311 313 316 317 320 323 323 327 330 326 327 330 331 331 332 332 333 333 334 335 333 326 322 319 318 319 320 322 321 320 322 321 322 324 325 327 326 327 329 328 325 322 318 316 317 317 317 318 317 317 319 321 322 322 322 322 322 322 321 327 331 331 332 333
316 315 315 314 313 313 313 312 311 309 307 306 307 308 310 311 312 312 312 312 312 313 313 312 312 314 316 317 320 323 324 328 329 327 328 329 330 331 331 332 333 333 334 333 329 326 325 322 319 319 319 321 321 319 322 321 321 324 326 325 323 325 327 325 323 319 316 317 318 318 318 317 317 318 319 320 321 322 320 319 319 320 323 330 332 331 331 332
315 315 315 313 313 313 313 312 312 311 308 306 307 308 308 309 310 311 311 312 312 312 313 312 312 313 316 319 321 323 325 327 326 326 327 328 329 330 331 332 332 333 334 331 328 326 326 323 321 321 319 320 321 320 322 321 320 323 326 325 322 322 324 320 317 315 315 318 318 316 317 317 319 320 318 319 321 320 316 315 316 319 325 330 331 331 331 332
314 315 315 313 312 313 313 312 312 312 309 306 306 307 308 309 309 309 310 311 312 312 312 312 312 313 317 320 322 323 324 325 324 324 327 330 328 329 331 331 332 332 332 332 330 326 324 323 321 321 322 323 322 320 321 321 321 322 324 325 321 319 321 316 312 312 314 315 314 315 318 319 319 317 316 318 320 319 317 318 319 321 325 327 328 329 331 333
314 315 314 314 313 312 313 313 312 312 310 307 306 307 308 309 309 309 310 310 311 311 312 312 312 313 316 319 321 323 324 323 323 324 327 330 331 330 331 331 331 331 332 332 331 328 326 324 321 320 322 322 321 321 321 321 323 323 323 324 322 320 321 316 313 312 312 313 312 316 319 317 314 313 316 318 319 320 318 320 323 323 325 326 327 329 330 333
314 314 314 314 315 313 313 313 313 312 311 308 307 306 307 308 310 311 310 310 310 311 311 312 312 313 316 318 320 323 324 322 322 323 324 328 331 331 331 330 330 330 331 331 330 329 327 325 322 320 320 320 321 320 321 322 323 323 322 323 322 322 320 316 316 313 311 312 312 316 320 315 312 313 320 320 317 319 317 319 323 324 324 326 327 329 332 333
313 313 314 314 314 314 313 313 312 312 311 309 309 307 306 307 310 311 311 311 310 310 311 313 312 314 317 318 319 322 324 323 323 322 322 325 329 332 331 329 328 329 329 329 330 329 329 327 322 321 322 321 320 320 320 320 322 322 322 324 322 322 321 315 317 315 312 313 312 314 317 314 312 313 319 320 315 316 317 318 322 323 323 325 327 329 332 333
312 312 314 314 314 314 313 313 312 312 311 310 309 309 307 307 309 312 312 312 311 311 312 313 313 315 318 318 318 319 323 324 324 323 322 323 329 331 330 327 324 327 328 327 327 326 327 326 322 323 324 322 321 321 321 319 320 322 321 325 324 323 323 319 319 315 315 317 312 313 318 317 315 314 315 318 314 314 316 317 320 322 322 324 326 328 330 332
312 313 315 314 314 314 313 313 313 312 311 310 309 310 308 306 309 312 313 312 312 312 312 313 314 316 317 316 316 316 319 322 322 323 323 323 328 330 330 328 324 326 328 327 324 322 323 323 323 323 322 324 326 324 323 320 320 321 322 324 325 325 325 324 321 315 316 318 312 316 324 325 323 317 315 317 316 314 315 316 318 321 323 324 325 327 329 331
312 313 314 314 314 314 313 313 313 312 311 310 309 309 308 306 308 312 313 313 313 312 313 314 315 317 315 314 315 316 316 318 318 321 324 325 327 328 329 329 327 328 328 327 322 320 320 319 321 321 320 324 327 325 326 324 320 321 323 323 324 327 327 325 321 317 320 316 311 320 326 328 331 323 316 316 316 315 316 316 317 319 321 324 325 326 327 330
312 313 313 314 314 313 313 314 313 312 311 310 309 309 309 307 308 311 312 313 313 313 313 315 316 316 314 314 315 314 315 316 318 321 323 325 327 327 328 328 327 328 328 327 322 319 320 320 320 320 320 321 322 326 331 329 324 322 325 326 325 327 327 326 321 319 324 317 310 321 326 326 331 327 320 317 316 315 317 318 317 318 319 321 324 325 325 328
311 313 312 313 313 313 313 314 313 313 312 311 310 310 310 307 308 310 312 313 314 314 314 315 316 315 313 314 314 315 316 317 318 320 322 324 326 327 327 326 326 325 324 323 322 320 321 322 321 320 321 322 323 327 332 332 330 326 325 328 327 326 327 328 322 318 323 319 312 319 327 328 328 326 322 319 316 315 317 318 318 318 318 319 321 323 325 326
312 312 312 312 313 313 313 313 313 313 312 312 310 310 311 308 307 310 313 313 313 315 315 314 315 314 313 313 314 315 318 320 318 318 321 323 324 325 325 325 324 324 321 320 321 321 322 322 321 321 321 322 323 327 331 332 333 331 327 326 328 327 327 328 325 320 318 320 318 319 322 327 327 324 321 318 316 316 316 319 320 319 319 318 320 321 323 324
312 312 312 313 313 313 313 312 312 313 312 312 311 311 311 308 308 312 313 312 312 313 314 313 314 313 312 312 313 315 319 321 321 319 320 322 323 324 325 324 324 323 322 322 323 322 323 322 321 322 323 322 323 327 331 331 331 333 331 328 328 328 327 328 328 322 318 320 322 321 320 324 327 325 322 318 316 316 317 319 319 320 320 319 319 318 319 321
312 311 311 313 313 313 313 312 312 313 312 312 311 311 311 310 310 312 312 311 310 312 313 313 314 312 312 311 311 315 320 321 321 321 321 322 322 323 324 323 324 324 324 326 325 323 323 323 323 324 324 323 324 325 327 328 328 331 332 329 328 328 327 328 328 323 320 322 323 324 324 323 325 326 325 321 316 317 318 319 319 319 319 319 318 317 317 318
312 311 311 312 313 313 313 312 312 312 312 312 312 311 309 309 310 310 311 311 311 311 312 313 314 311 311 314 312 313 318 321 322 323 323 322 322 323 323 323 325 326 325 326 326 324 324 325 325 325 324 322 323 323 323 325 325 327 329 329 329 329 328 328 328 323 320 324 326 325 326 325 325 325 324 323 320 318 318 318 319 320 319 319 318 317 317 317
312 311 311 312 312 313 312 312 312 312 312 311 311 309 308 307 308 308 310 310 310 311 311 312 313 312 312 316 317 314 316 320 322 323 323 322 322 323 323 324 326 327 326 326 325 324 326 327 325 324 322 320 321 322 322 324 325 326 328 329 331 331 330 328 327 323 318 323 327 324 325 325 325 326 324 323 322 320 319 319 320 320 321 320 319 319 318 318
311 310 310 312 312 313 312 312 312 312 311 311 310 308 307 307 307 307 309 309 309 311 311 311 312 312 313 315 315 315 316 318 320 323 324 322 321 323 324 325 327 327 326 325 325 325 326 325 324 323 321 320 320 320 322 324 324 326 327 331 333 332 330 328 326 323 318 322 328 324 324 326 325 325 325 323 322 322 321 320 321 321 322 321 320 320 320 320
310 310 310 311 312 312 312 312 313 312 311 310 310 308 307 307 306 305 308 308 308 310 310 310 311 311 312 313 313 315 316 317 319 321 322 323 322 322 324 326 326 326 326 325 325 326 326 324 323 322 321 320 320 320 321 322 323 326 327 330 333 331 331 331 327 322 318 320 323 323 324 326 325 324 324 323 322 321 321 320 321 321 321 322 322 323 322 321
310 310 310 311 312 312 312 312 312 311 310 310 309 307 306 307 306 306 308 308 309 310 309 310 310 311 311 313 313 314 315 317 318 319 321 322 323 322 323 325 325 326 326 325 324 325 324 323 323 323 323 321 321 321 320 322 323 325 326 328 331 331 331 330 327 323 320 319 319 322 328 328 327 327 326 325 323 321 321 320 320 320 320 321 322 323 323 322
309 310 311 311 312 312 312 312 311 310 310 310 309 307 306 307 307 307 309 309 309 309 309 310 310 310 311 312 313 314 315 315 317 319 321 321 321 322 323 323 324 326 325 323 324 324 322 323 324 324 324 323 323 323 322 322 323 324 325 325 327 330 331 329 327 326 328 328 323 325 334 333 328 329 330 328 327 325 323 322 322 322 321 320 320 320 321 322
309 310 311 312 312 312 312 311 310 309 310 309 308 307 306 307 308 307 306 306 306 308 310 310 309 309 310 312 314 313 313 314 315 318 320 320 321 321 322 323 323 324 323 322 322 322 321 321 322 323 324 324 324 324 323 322 325 326 325 324 325 329 330 329 328 329 333 333 325 325 334 334 328 328 330 329 329 328 326 325 324 324 323 322 321 321 320 320
309 310 311 312 312 312 311 311 309 309 309 309 308 307 306 307 308 305 303 304 304 308 311 309 307 308 309 312 314 311 312 314 315 318 318 318 320 320 322 324 322 322 322 322 323 323 321 321 321 321 323 324 325 324 323 322 326 328 326 324 326 328 330 330 330 331 331 330 326 324 329 334 331 330 329 328 328 329 328 327 326 325 325 324 324 323 323 322
307 309 311 311 311 311 310 310 309 309 309 308 308 307 306 307 307 303 302 304 306 307 310 309 308 308 309 313 313 310 312 315 315 318 318 318 319 320 321 322 322 322 321 321 325 324 321 322 322 321 322 324 325 323 322 322 325 327 326 326 326 327 331 330 330 332 331 332 332 327 326 333 334 329 328 328 328 328 328 327 328 327 326 325 325 325 324 323
306 308 311 311 311 310 310 309 309 309 309 308 308 307 307 306 305 302 301 304 307 306 309 311 308 308 311 313 313 310 312 313 314 317 319 318 319 320 321 321 321 322 321 321 323 322 322 322 321 321 323 324 323 322 322 322 323 326 328 328 328 330 332 331 333 334 332 333 336 330 327 332 334 328 327 329 327 327 327 326 327 327 327 327 326 326 325 323
307 308 310 311 311 310 309 309 309 308 308 307 307 307 306 305 303 303 302 304 306 307 309 311 308 309 313 313 313 312 311 312 315 318 319 319 319 319 320 320 321 322 322 322 321 321 324 324 321 322 323 323 322 322 322 322 324 328 331 330 330 331 331 331 331 333 335 335 334 330 327 331 334 329 326 328 327 326 327 326 326 326 326 327 327 327 326 324
307 308 310 310 310 309 309 309 308 308 308 307 307 306 306 305 302 302 304 304 305 309 311 311 309 311 313 313 313 313 311 311 314 317 319 320 320 320 320 320 322 322 323 324 322 322 325 325 325 325 324 322 323 324 324 324 326 330 332 332 331 330 331 330 328 330 336 337 334 330 327 330 333 330 326 328 327 326 326 325 326 326 326 327 327 327 326 325
308 309 310 310 310 309 308 309 308 308 307 307 307 306 305 305 304 302 304 303 302 308 311 311 311 312 312 312 312 313 312 311 312 315 318 320 321 321 321 320 322 324 325 325 325 324 325 325 325 325 324 324 325 327 327 327 328 330 332 333 333 332 334 334 331 332 335 336 333 330 329 331 332 328 326 327 326 325 325 325 325 325 326 326 327 327 327 326
308 309 309 309 308 307 307 308 308 307 307 306 307 305 303 304 304 303 303 302 303 309 311 311 311 312 312 312 312 313 313 311 312 313 315 318 320 321 320 320 321 324 326 325 325 326 325 325 325 326 325 324 326 328 328 327 329 330 331 333 334 334 337 337 335 333 335 335 330 328 331 333 331 327 326 326 326 325 325 325 326 327 327 328 328 328 327 325
308 309 309 309 307 307 307 307 307 307 307 306 306 305 304 304 304 303 303 303 304 309 311 311 311 312 312 312 311 313 313 312 312 313 314 317 319 321 321 321 320 322 325 325 324 325 326 326 326 326 327 326 326 328 328 327 330 330 331 333 334 333 335 336 335 335 336 333 327 328 333 333 330 327 323 322 323 324 323 324 326 325 325 325 325 324 323 322
308 309 309 308 307 307 307 307 307 307 307 306 305 304 304 304 303 303 303 304 306 310 312 311 311 312 312 311 310 312 313 312 312 312 314 317 319 320 321 322 321 321 324 324 324 324 325 327 327 325 326 326 326 327 326 327 331 330 330 334 334 332 330 330 330 330 331 330 328 329 331 330 328 325 323 322 321 321 321 321 321 321 320 321 322 322 321 321
308 309 308 307 307 307 307 307 307 306 306 306 304 304 303 303 303 303 303 304 308 311 312 312 312 312 312 311 311 312 312 313 313 313 314 315 317 318 320 321 321 321 323 324 324 324 325 328 327 325 327 327 325 326 325 326 331 331 331 333 331 329 329 328 326 324 327 331 330 329 330 328 326 326 324 325 324 322 322 321 319 320 320 321 322 322 322 322
308 309 307 307 307 307 306 306 306 305 306 305 304 304 303 302 304 304 304 305 308 311 312 313 313 312 312 312 311 312 312 312 313 313 314 314 315 316 318 319 320 320 322 324 324 325 327 328 328 325 327 327 325 326 325 325 330 332 332 331 327 328 330 329 328 326 328 333 332 329 330 329 328 329 326 325 326 325 324 323 321 322 321 320 320 321 321 321
308 308 307 307 307 307 306 306 306 306 306 305 303 304 303 303 304 306 307 306 307 311 312 313 313 311 312 312 311 311 312 311 313 314 314 314 315 316 316 318 320 319 319 322 324 324 326 328 328 326 326 327 326 328 329 327 328 329 330 329 327 329 330 329 330 330 329 332 331 328 328 327 327 327 325 326 327 326 326 325 325 324 322 321 321 321 320 319
308 308 307 307 306 306 306 306 306 307 306 304 304 304 303 303 305 309 311 307 305 308 310 312 313 311 311 312 311 311 311 310 313 315 314 314 315 316 316 316 319 321 319 320 322 325 326 327 328 327 326 327 328 329 331 330 326 326 328 329 329 329 330 329 329 328 328 329 329 328 327 325 325 325 324 326 326 326 326 326 325 325 324 324 323 325 325 321
307 307 306 306 306 306 306 306 306 306 305 304 304 305 304 304 307 311 313 310 307 307 307 310 312 312 311 312 311 312 312 311 313 314 313 314 315 316 317 315 317 321 321 320 321 324 325 325 326 327 326 328 330 329 330 331 329 327 329 330 330 329 329 330 329 326 327 328 327 328 327 322 321 324 324 324 325 325 326 326 327 326 325 324 325 327 328 323
306 306 305 305 306 305 305 305 305 304 304 304 304 304 305 305 306 310 311 310 309 309 307 309 312 312 312 311 311 312 313 312 313 313 313 314 315 315 318 317 316 320 322 322 322 322 323 324 325 326 327 329 330 329 329 329 329 329 329 330 331 330 329 330 331 328 327 327 326 327 327 323 321 323 323 323 324 324 325 326 328 329 327 326 326 326 326 325
306 306 305 305 305 305 305 305 305 304 304 304 303 304 305 305 306 309 309 308 309 309 307 308 311 311 311 312 312 313 314 313 312 313 313 314 314 315 318 319 318 319 322 322 322 322 323 324 324 324 326 329 329 328 328 328 327 328 329 329 330 331 329 329 331 329 327 327 326 326 328 326 321 321 322 323 324 323 325 325 325 326 326 326 325 323 323 324
305 305 304 305 305 304 305 305 305 304 303 304 304 304 305 306 306 308 308 307 308 308 307 308 309 311 311 312 312 312 313 314 313 313 313 314 314 314 317 320 320 320 321 322 322 322 322 323 324 324 324 326 327 327 327 327 328 329 330 329 329 330 327 327 328 327 327 328 326 327 330 327 321 320 321 322 322 322 323 324 324 324 324 324 323 321 323 324
303 304 304 304 305 304 305 306 305 304 304 304 304 304 306 306 305 307 308 306 307 308 308 308 309 310 310 312 312 311 312 314 313 313 313 313 314 313 315 319 320 321 321 321 322 322 322 322 323 325 326 326 327 327 327 326 328 329 330 329 329 329 328 329 328 327 327 328 327 328 329 327 321 319 319 318 318 319 320 319 320 321 323 324 322 320 320 321
303 303 301 301 304 304 305 306 305 304 304 304 303 304 306 306 305 306 307 306 307 308 309 309 309 309 309 309 310 310 311 313 313 313 314 313 315 315 315 318 320 320 321 322 322 321 321 322 323 325 328 328 327 328 328 328 328 329 329 329 328 329 329 329 328 326 326 327 327 327 327 324 319 316 316 316 315 317 318 316 316 317 321 322 322 319 316 315
304 304 301 301 302 303 303 305 305 304 303 303 303 304 305 305 305 305 306 306 307 308 310 310 310 309 309 308 308 308 310 312 312 313 314 314 316 317 317 318 321 321 322 324 324 321 320 321 322 323 326 327 328 328 328 328 328 328 329 328 328 328 329 329 329 326 326 326 326 325 325 323 320 317 317 315 315 317 318 318 317 317 319 319 317 316 313 311
303 304 303 302 303 302 303 304 304 303 303 303 303 303 304 304 305 304 305 305 306 307 308 309 309 309 310 309 309 308 310 310 310 312 314 314 316 317 317 319 321 322 322 322 322 321 320 321 322 322 323 325 329 329 328 328 328 327 328 328 327 327 328 329 329 327 327 327 326 325 324 325 323 320 319 317 315 316 318 319 317 316 317 317 315 315 314 313
301 303 304 304 304 303 303 303 303 303 303 303 303 303 303 303 304 305 304 305 305 306 307 308 309 309 309 309 310 310 310 310 309 311 313 315 317 317 317 319 321 322 321 320 320 321 320 320 321 323 323 323 326 327 327 327 327 326 326 327 327 327 328 329 328 326 326 327 326 325 324 325 323 321 320 319 317 316 316 317 316 315 314 315 315 317 319 320
300 302 303 304 304 304 304 304 303 303 303 303 303 303 304 304 304 304 305 305 306 305 306 308 309 309 309 310 310 310 310 310 310 310 311 314 317 318 317 319 320 320 320 319 319 319 319 319 319 320 322 322 322 323 324 325 326 326 326 326 326 326 327 327 327 326 326 326 325 324 325 324 322 321 320 319 318 317 315 315 315 315 315 316 318 319 320 323
302 303 303 303 303 303 304 304 303 303 303 303 303 304 304 304 304 304 305 306 307 307 306 307 309 309 309 310 310 310 310 310 311 311 311 313 315 317 317 318 319 319 318 318 317 318 320 321 318 317 319 319 318 319 320 322 323 325 327 327 327 326 326 326 325 326 326 326 323 323 325 324 322 322 321 320 319 318 316 315 315 316 317 316 316 319 320 322
302 302 303 303 302 303 304 304 303 303 303 303 304 304 304 304 304 304 305 305 306 307 306 307 308 309 309 310 311 311 310 310 310 311 311 312 314 316 317 317 318 320 318 318 319 318 318 319 318 317 317 318 317 317 318 318 319 321 324 326 327 327 327 326 326 325 325 326 325 325 325 324 323 321 320 320 319 318 317 316 316 318 318 318 318 318 318 318
301 301 302 303 302 302 304 304 304 303 303 303 303 304 305 304 305 305 305 306 307 307 307 307 307 308 309 310 310 310 311 311 312 314 314 314 315 316 318 319 318 319 319 319 320 319 318 318 317 316 317 318 317 317 316 317 318 318 321 323 324 326 326 325 326 325 324 324 325 326 325 323 322 321 320 319 318 317 316 317 319 320 321 320 317 314 316 318
Wind_Speed
39 37 35 34 33 32 32 31 30 29 28 26 23 22 22 22 22 21 20 19 19 19 18 16 13 12 11 9 12 18 18 17 17 20 22 25 30 24 17 18 18 16 12 6 3 2 1 3 4 3 3 2 2 1 1 1 1 4 5 6 7 7 6 6 8 5 1 1 6 8 10 11 8 6 3 2 5 4 3 5 5 3 5 3 2 3 5 16
40 38 36 35 34 33 32 31 30 29 28 27 25 23 22 22 22 22 20 19 19 19 19 17 15 13 11 9 10 14 17 18 18 21 29 28 27 27 21 14 13 16 16 13 11 6 4 5 3 4 3 3 1 1 2 2 2 5 5 6 8 7 5 4 7 6 3 2 6 8 9 9 6 8 6 5 7 6 7 7 7 7 9 7 3 2 9 17
39 39 37 36 35 34 33 32 31 29 29 28 26 24 23 22 22 22 20 19 18 19 19 17 16 13 12 10 7 9 12 14 14 20 32 33 27 26 25 18 13 13 12 11 12 10 8 4 2 4 3 4 3 2 4 3 3 5 4 7 8 5 4 4 7 8 5 0 5 8 7 7 5 6 7 6 6 7 10 9 8 10 13 11 8 7 11 16
39 39 39 37 35 35 34 33 32 30 29 28 28 26 24 23 23 22 21 20 18 18 18 18 16 14 13 10 7 7 5 7 10 18 29 33 32 27 26 24 18 15 11 8 8 7 7 3 3 6 4 5 4 3 5 4 4 2 5 10 5 4 5 7 8 8 5 1 2 6 5 7 5 5 7 7 6 7 12 12 11 13 14 12 11 11 13 15
41 40 40 39 37 35 34 34 33 31 30 28 28 27 25 24 22 22 21 20 19 18 18 17 16 14 12 10 9 8 6 3 7 17 29 32 33 31 29 28 22 17 13 9 7 4 4 3 4 5 3 5 5 4 8 6 3 3 9 11 2 3 6 5 6 5 4 2 2 6 5 5 5 6 9 10 10 7 5 8 12 14 11 10 13 13 14 15
43 41 40 41 40 37 35 34 33 32 31 29 28 27 26 25 23 22 21 20 20 19 18 17 16 14 13 10 10 10 10 5 3 2 22 33 35 33 30 28 23 18 15 10 6 5 5 5 5 6 4 6 9 8 9 6 4 6 10 9 3 4 5 1 1 4 5 5 6 6 4 4 6 8 9 13 14 5 4 1 5 8 4 8 13 14 14 15
43 42 41 42 41 38 36 35 34 33 32 30 29 27 26 25 23 22 21 20 20 19 18 17 16 14 13 10 9 10 9 10 7 6 9 28 35 36 32 28 24 18 17 13 8 6 5 7 8 7 6 6 9 11 8 5 6 9 10 7 4 5 5 1 1 3 5 6 4 3 3 5 10 7 5 12 17 6 5 3 0 1 4 10 12 13 14 16
44 43 43 42 40 39 37 36 35 34 33 31 29 28 26 24 23 22 21 20 19 19 19 17 16 14 13 11 7 8 8 18 25 9 3 23 33 36 34 27 25 22 21 18 14 10 4 6 8 6 9 8 7 11 9 7 8 11 13 7 3 4 5 0 1 3 6 4 1 3 5 7 7 2 1 10 16 10 5 3 3 4 7 9 11 13 13 15
45 45 45 43 40 40 39 37 36 34 34 32 30 28 26 24 22 21 21 21 20 19 19 17 16 15 14 11 5 8 13 22 29 11 3 19 28 35 37 29 27 26 22 20 17 15 8 5 5 2 5 7 6 10 10 10 9 11 15 9 2 4 4 3 2 4 5 3 2 6 9 5 2 1 6 12 14 9 7 4 4 5 7 9 10 12 12 13
47 47 47 45 42 41 40 38 37 34 33 32 30 29 27 24 22 20 20 20 20 19 19 18 16 15 15 11 7 10 11 13 25 23 11 14 22 30 36 33 30 26 20 17 18 17 12 9 8 5 2 2 3 7 10 11 5 7 14 10 4 4 2 3 5 4 3 4 6 9 9 2 3 2 8 9 7 6 8 8 6 5 8 9 9 11 12 13
48 48 47 48 45 42 41 40 38 35 33 33 30 28 27 24 21 20 19 19 20 20 19 18 16 16 14 9 9 10 3 2 16 26 20 14 18 28 35 34 31 26 18 15 18 20 16 13 14 8 1 1 3 6 7 6 3 3 8 8 7 6 3 4 6 5 4 4 7 8 7 1 3 6 9 4 3 5 10 11 8 8 9 9 10 9 10 12
47 47 46 49 46 42 41 39 37 36 34 33 30 28 27 24 21 20 19 19 19 20 19 18 17 16 12 7 13 16 5 3 3 13 21 17 15 27 35 35 34 30 22 16 15 17 15 15 16 8 2 1 1 4 5 6 5 3 4 7 9 8 9 9 6 6 6 5 7 5 7 7 9 9 8 5 2 4 8 10 9 10 10 9 10 8 9 11
45 47 44 47 45 42 42 39 37 36 34 33 30 27 26 24 21 19 19 19 19 19 18 17 16 14 10 6 15 25 17 7 6 4 13 16 13 18 25 33 37 32 26 18 16 18 16 16 17 9 2 2 1 2 8 7 4 5 6 7 8 8 11 13 8 5 8 5 7 7 8 10 15 12 10 8 6 5 7 9 8 8 9 8 8 8 8 10
42 45 44 44 44 43 42 39 37 36 34 33 30 27 26 24 21 19 18 18 18 19 18 16 15 11 9 8 11 19 20 17 17 12 9 13 12 10 13 23 29 27 25 21 20 21 20 19 15 6 2 1 1 4 7 5 3 6 7 4 8 10 8 11 10 8 10 4 6 9 9 10 15 11 13 11 8 8 10 10 9 8 8 7 7 8 9 10
41 44 45 45 46 44 43 40 37 36 35 33 30 26 25 24 21 18 17 18 18 18 17 14 14 10 4 10 11 15 18 14 17 16 12 15 13 9 11 15 18 21 22 22 23 23 24 22 14 5 2 2 1 3 3 2 3 6 7 6 10 11 6 7 9 13 14 4 6 11 8 10 15 10 12 12 10 11 13 12 11 10 9 9 8 9 9 9
41 45 47 48 48 45 43 41 37 37 35 33 29 25 24 24 20 17 16 17 15 17 17 12 13 12 4 6 6 11 16 14 16 16 14 20 18 13 14 15 16 19 20 22 27 26 23 17 8 4 5 3 2 3 1 1 3 5 9 10 11 11 9 6 6 13 13 5 8 13 8 8 11 6 7 9 10 12 13 14 14 12 11 10 8 8 8 8
41 44 47 49 49 47 45 43 39 37 35 32 29 25 24 22 19 17 16 16 15 15 15 10 11 10 5 5 5 7 12 13 16 18 16 22 22 17 17 14 13 18 21 21 24 21 13 8 4 4 4 3 5 4 4 5 6 7 9 10 12 12 12 8 4 7 9 5 9 14 12 13 12 4 4 5 7 10 12 14 14 13 12 11 9 7 8 8
41 43 45 48 49 48 47 46 42 38 36 34 29 26 23 21 20 16 15 14 11 11 10 8 11 9 7 12 13 9 10 12 15 19 21 21 21 23 19 11 12 17 15 10 9 9 4 3 4 4 4 6 7 6 9 11 10 11 11 11 10 9 11 13 7 7 10 9 11 14 13 17 20 14 6 5 5 8 12 13 13 13 13 11 8 8 9 9
40 42 45 47 47 47 47 47 43 39 38 34 29 28 23 19 15 12 13 13 9 7 5 8 12 8 5 11 15 8 5 12 17 19 23 22 21 22 17 11 14 15 10 4 4 6 5 4 4 6 7 10 11 12 16 14 10 13 15 13 11 9 10 11 6 7 12 11 13 16 15 15 21 20 12 7 7 8 11 11 10 11 12 10 8 9 10 11
40 42 46 48 48 48 48 48 45 42 39 33 32 27 17 14 9 6 11 11 11 8 2 9 16 10 3 4 8 13 7 12 16 17 24 27 22 18 12 10 13 10 9 9 8 7 7 5 6 7 10 14 16 19 21 16 13 15 16 15 15 13 9 8 6 3 6 9 12 15 15 15 18 19 15 11 8 8 10 11 11 11 11 10 11 12 11 13
40 43 46 49 50 49 49 49 46 43 38 36 34 19 10 14 8 6 11 9 14 13 2 9 19 17 7 7 4 12 9 5 7 11 22 26 21 14 9 10 12 9 10 11 9 8 7 8 11 11 13 16 17 20 19 18 20 17 14 13 14 14 10 9 8 2 2 8 9 10 13 16 17 17 14 12 12 12 13 13 13 14 13 10 11 14 13 12
41 43 46 50 51 49 50 50 46 43 38 36 32 13 9 15 5 6 14 6 11 15 8 7 13 15 12 5 5 4 8 8 8 9 18 22 18 12 10 12 14 11 12 11 9 9 10 11 16 15 14 15 16 19 20 21 22 17 11 10 10 10 9 7 7 3 3 6 6 6 11 14 15 18 17 15 14 12 13 15 15 16 15 12 12 13 12 12
41 43 48 51 52 50 49 49 45 42 38 34 28 14 12 15 8 12 15 4 6 11 10 10 11 13 13 7 4 3 9 12 12 11 18 21 14 12 13 13 15 13 14 15 11 11 11 12 18 17 14 17 18 19 21 20 18 16 13 11 10 11 11 9 6 5 4 4 4 3 8 11 12 16 17 15 13 12 13 17 17 16 16 16 16 14 12 14
41 43 49 52 53 50 49 49 43 40 39 33 24 15 17 19 15 17 12 2 3 7 10 14 10 10 10 5 3 5 8 9 9 10 19 19 11 10 13 13 16 14 13 18 17 13 11 10 13 15 15 19 20 18 19 15 12 16 18 15 12 11 14 12 5 6 3 4 2 4 10 11 12 16 16 13 13 14 15 16 17 16 16 17 17 16 14 16
41 44 49 52 51 50 50 45 39 40 37 26 19 18 23 24 19 16 8 1 2 2 6 11 6 9 11 6 5 5 5 8 8 7 16 22 15 10 10 8 10 13 14 18 16 11 11 9 11 13 16 18 20 18 18 14 10 14 18 18 15 11 13 10 7 7 5 8 7 5 10 11 9 16 17 13 14 16 15 16 19 17 16 16 16 16 17 16
41 44 50 52 50 53 46 28 30 40 29 17 20 22 26 27 19 13 7 2 3 3 6 10 7 11 15 11 8 5 4 9 10 10 13 20 17 11 9 7 5 10 13 13 9 5 8 10 9 12 14 16 19 18 18 16 11 11 13 18 18 12 13 12 10 9 8 8 5 8 12 12 7 12 15 13 15 17 15 16 19 17 15 15 15 16 16 15
42 44 51 53 53 54 34 16 32 37 17 16 27 27 27 28 19 12 6 2 4 5 8 9 7 9 14 14 14 9 5 5 10 12 13 16 15 8 10 12 6 8 8 7 6 5 8 13 13 15 13 12 15 13 15 16 12 10 10 17 19 16 16 14 12 11 9 3 2 6 9 11 12 11 11 12 13 16 17 17 17 16 16 17 17 18 17 15
41 43 52 54 56 57 35 25 37 25 13 27 33 29 29 29 21 12 6 4 2 4 6 6 4 5 9 15 19 13 7 4 7 12 16 20 19 9 11 17 13 12 12 9 10 9 13 18 19 19 15 11 13 13 14 16 14 11 9 15 19 19 19 15 13 12 6 2 7 9 5 8 13 8 8 13 16 19 19 19 18 17 18 18 18 19 17 15
41 44 52 56 58 53 37 34 34 21 27 40 35 33 34 29 18 7 4 4 1 3 5 7 5 5 9 13 17 17 10 4 3 5 13 17 16 9 6 13 16 14 15 13 13 9 10 17 20 19 14 12 14 14 14 17 15 9 9 13 12 10 10 10 11 10 5 5 14 12 10 8 14 7 9 13 15 19 18 16 18 19 18 18 17 17 15 13
42 45 53 55 50 42 32 29 30 31 41 42 36 38 34 21 11 6 6 5 1 3 4 7 9 9 14 14 14 18 16 10 4 3 8 11 12 10 3 4 11 13 12 13 14 9 4 7 12 13 11 11 11 10 13 18 15 8 9 10 5 2 1 1 4 5 6 10 14 14 15 12 14 11 10 12 12 13 14 13 14 17 19 19 18 14 13 13
41 45 53 53 45 41 29 20 29 42 46 45 41 34 22 10 5 7 8 2 2 4 4 7 11 12 18 17 12 15 16 13 9 7 7 7 10 12 5 3 6 8 9 9 11 12 6 4 6 7 10 11 9 9 12 14 12 8 7 9 7 3 1 1 1 4 6 9 11 15 16 14 15 11 6 11 13 12 14 14 14 17 18 17 15 13 12 13
39 45 53 51 45 43 30 25 42 50 48 49 38 19 10 8 6 7 5 3 2 6 7 10 13 14 20 19 13 15 16 13 13 12 9 8 9 11 11 9 6 6 8 9 9 11 11 8 7 8 11 13 11 9 8 6 10 10 8 10 9 4 4 5 5 4 5 8 10 13 15 12 18 14 5 9 11 10 12 13 14 16 16 15 14 13 11 10
40 46 51 48 42 38 35 41 52 51 50 46 26 8 8 8 8 9 7 5 2 3 7 11 13 15 18 17 12 15 15 13 14 14 13 13 10 10 14 14 13 9 6 11 12 9 9 10 11 11 9 12 13 11 8 6 9 12 10 11 10 6 6 8 6 3 4 8 8 9 14 9 15 13 10 15 15 11 11 12 13 13 14 13 10 8 7 7
41 47 48 42 37 37 43 51 54 55 50 33 14 8 10 8 8 10 9 6 2 1 6 11 14 16 16 15 13 14 13 12 14 15 13 13 9 9 13 14 18 14 4 8 10 10 13 11 12 15 10 13 16 13 11 10 11 14 11 10 10 8 7 8 7 7 8 6 3 8 11 8 8 3 2 9 11 8 7 8 9 7 8 8 5 4 5 7
44 48 44 34 32 42 51 53 56 59 42 19 9 11 11 8 7 9 10 8 3 3 8 11 15 15 14 13 13 15 13 9 13 14 12 13 10 9 11 10 16 15 7 7 5 8 15 9 10 17 13 18 22 16 14 13 10 10 9 11 11 8 7 4 2 5 6 4 4 6 5 6 6 5 5 4 3 4 6 5 6 8 9 8 7 8 8 8
44 43 35 28 34 47 55 53 55 53 30 11 10 10 9 8 6 8 9 7 4 6 10 11 12 12 11 11 11 15 13 8 12 13 10 13 13 12 11 6 11 15 10 8 3 5 11 7 10 15 11 18 23 17 17 15 8 7 9 11 6 4 6 4 1 2 2 6 5 5 6 8 7 10 12 11 6 6 8 7 8 11 10 8 9 9 9 8
37 32 22 23 37 50 55 53 51 40 18 8 10 10 8 6 4 6 7 7 6 7 9 8 8 9 10 10 10 15 15 9 11 11 8 11 11 13 15 8 9 15 14 9 4 2 6 6 11 18 15 18 20 16 17 16 9 7 11 11 3 3 3 4 4 3 5 8 5 6 10 11 7 7 7 14 15 13 13 11 11 11 8 8 10 9 8 8
31 25 14 21 43 52 53 53 44 26 9 6 10 9 6 5 6 6 6 9 8 7 8 6 6 8 9 10 11 15 17 12 11 11 9 9 7 12 17 10 8 17 19 14 5 1 5 4 7 16 17 14 14 13 13 12 6 2 8 10 5 4 7 6 5 5 7 8 5 8 12 10 10 8 3 11 17 17 17 15 13 14 10 9 10 8 7 8
25 16 5 23 48 51 52 48 30 13 7 8 10 8 6 6 6 4 3 9 10 9 10 8 5 6 7 9 11 14 17 15 13 11 9 9 6 10 17 12 9 15 20 19 9 2 4 4 3 10 13 11 9 10 10 9 5 1 3 7 2 2 6 7 5 3 6 8 6 10 10 8 11 11 8 10 14 14 15 12 12 15 13 11 10 8 7 7
14 6 2 29 50 49 48 36 15 7 7 8 8 5 6 6 4 2 1 6 8 6 9 10 7 5 6 8 9 11 14 15 14 11 9 10 8 8 14 14 12 13 15 19 15 6 4 5 4 5 8 9 7 9 12 14 11 6 6 8 5 3 2 3 4 4 4 6 7 9 10 10 7 7 12 15 13 13 12 9 9 10 11 12 11 8 4 4
8 3 2 30 51 48 37 18 5 7 5 5 7 3 4 5 4 4 1 0 2 0 2 7 7 6 5 6 8 9 11 13 14 11 9 10 10 8 9 12 13 13 11 13 15 10 5 5 6 4 5 9 10 13 18 18 15 13 11 11 12 10 6 5 8 7 5 6 7 7 9 10 4 5 10 14 14 14 13 11 9 9 9 9 7 4 3 4
5 3 6 33 51 43 24 7 3 7 3 5 7 4 4 5 5 6 2 2 0 2 2 1 4 7 7 5 6 7 9 11 13 12 10 12 13 10 8 12 15 14 11 9 12 10 3 3 7 5 4 8 8 8 13 17 18 15 10 9 11 11 9 9 9 8 7 7 5 5 8 5 2 4 7 9 11 13 12 11 10 9 8 6 4 4 4 5
2 5 15 40 53 35 14 7 7 6 4 4 6 4 4 5 4 4 4 4 3 2 2 2 3 6 7 5 5 6 7 9 13 15 12 13 15 12 11 14 15 14 11 8 10 8 2 2 6 4 3 4 2 1 3 9 14 12 7 5 8 11 11 9 5 4 7 8 6 6 9 6 3 4 3 2 3 5 5 6 9 9 6 5 5 5 5 5
3 5 9 30 47 30 9 8 11 10 8 7 7 6 3 2 5 5 6 8 5 3 4 5 3 3 3 2 3 7 9 8 11 15 13 11 12 13 14 15 15 13 9 8 9 8 4 3 5 5 5 3 2 2 4 5 7 8 8 8 10 14 13 4 1 1 5 10 10 8 10 9 3 3 3 1 1 4 4 3 5 6 5 5 6 5 4 4
5 4 3 10 25 19 4 4 9 11 10 9 8 9 4 2 3 3 6 7 4 4 5 4 3 4 3 1 1 3 10 10 9 12 13 10 7 8 13 17 16 14 11 10 11 9 7 5 5 7 8 7 7 8 7 7 7 6 10 13 13 16 16 8 5 5 6 10 12 9 12 10 1 4 5 4 2 5 6 3 2 4 5 5 5 3 2 3
4 3 2 2 5 6 1 1 4 7 10 9 7 8 10 8 2 2 5 5 3 4 2 0 4 5 6 6 4 3 6 9 6 5 11 12 6 3 10 14 14 15 14 11 10 7 5 7 8 10 10 7 4 3 3 6 10 11 15 19 18 19 21 15 10 9 8 10 11 12 15 12 5 5 7 6 5 6 6 5 4 5 6 6 4 3 3 4
1 2 4 3 3 4 1 1 3 5 9 11 7 7 13 13 6 4 4 4 4 5 2 1 4 6 7 10 10 8 7 9 7 4 10 14 7 2 7 12 13 16 16 11 9 6 2 7 14 15 16 12 2 2 3 8 13 18 20 22 22 20 21 18 14 13 12 11 11 13 17 18 16 13 9 7 7 6 5 6 6 5 5 4 3 3 5 6
1 2 1 1 3 7 6 6 8 8 9 11 6 6 12 15 11 8 5 3 4 6 5 3 7 12 13 12 10 10 10 10 9 8 7 9 6 1 4 9 11 14 15 11 8 7 2 5 10 14 20 17 4 3 3 6 11 15 16 19 23 22 22 20 18 16 15 12 13 15 18 20 22 18 11 9 8 7 7 7 3 2 2 2 3 4 6 7
1 2 1 2 1 8 10 8 10 11 11 11 7 6 11 15 16 11 5 5 3 6 8 9 11 14 15 13 10 9 10 11 11 10 7 7 8 5 5 6 6 8 11 8 6 5 4 3 3 5 12 13 4 2 2 4 7 12 14 16 19 20 22 22 20 19 18 15 15 17 19 20 22 20 13 8 7 6 6 3 1 2 3 3 4 6 7 6
1 1 3 1 2 6 7 7 10 11 10 10 9 8 10 14 17 12 7 8 8 7 10 14 14 13 14 14 13 14 15 14 16 15 10 7 8 7 7 7 5 6 9 8 5 4 5 7 7 3 4 6 4 3 4 3 4 9 13 16 17 18 20 20 19 18 16 15 19 21 18 18 20 16 9 5 5 6 5 4 3 5 5 5 7 7 7 7
1 2 4 3 3 6 7 7 10 11 10 10 10 9 11 15 16 13 9 10 10 9 12 17 14 10 11 14 17 20 19 18 19 18 14 12 10 7 6 7 8 10 10 8 6 6 7 6 6 4 4 7 7 8 9 8 9 9 10 13 16 17 17 18 20 19 16 17 21 21 17 18 16 8 5 5 6 7 8 7 6 6 6 8 9 7 5 6
2 2 4 4 4 5 7 8 9 9 9 11 12 10 11 12 12 12 9 8 9 10 10 13 13 9 9 16 21 21 19 17 15 11 9 8 7 5 3 5 10 12 11 9 6 6 8 7 4 5 6 10 13 11 8 8 10 9 8 12 17 18 18 18 19 20 19 17 16 16 17 14 5 3 6 8 8 9 9 8 7 7 9 9 8 5 4 5
Wind_Direction
227 225 222 222 223 224 225 225 226 229 231 229 225 223 223 228 232 231 232 234 234 233 232 230 232 237 237 240 229 222 224 229 239 229 222 224 221 218 216 214 211 202 204 239 289 338 333 241 212 192 229 256 266 266 184 188 187 199 218 232 236 227 212 193 195 194 292 193 162 174 187 193 181 167 176 161 207 215 179 207 210 215 235 241 41 38 137 151
227 225 222 220 221 222 223 224 225 226 229 230 227 225 222 222 227 230 230 231 232 231 232 232 231 236 237 239 236 227 228 240 254 245 230 227 226 223 216 205 197 199 209 232 253 253 253 256 204 167 211 218 203 246 207 187 202 216 220 231 237 228 203 199 209 197 225 252 160 171 194 201 185 159 166 202 198 191 217 217 208 226 225 210 187 134 149 160
228 225 222 219 219 220 220 222 223 224 227 230 229 227 224 222 224 228 229 228 230 230 231 232 230 232 235 235 240 232 233 253 267 255 238 228 225 223 217 207 184 176 186 211 231 230 233 262 226 194 205 224 209 196 220 185 197 223 217 236 239 211 203 215 220 210 208 193 151 168 185 203 192 147 163 209 203 192 221 222 203 222 225 205 175 165 167 170
226 224 223 221 218 219 219 220 221 222 225 228 229 228 225 224 224 225 227 227 227 229 229 230 229 228 231 230 232 218 219 277 264 248 240 226 221 220 214 209 192 176 174 193 212 210 217 227 226 218 200 221 216 199 223 198 193 207 206 238 243 162 218 220 212 216 191 89 168 151 152 204 191 150 177 190 202 218 227 228 215 219 222 199 164 169 180 177
224 222 222 221 219 218 217 218 219 221 223 225 227 228 227 225 224 223 223 225 226 227 226 228 227 226 229 223 220 193 153 253 253 244 240 224 216 216 214 212 203 190 182 192 202 174 192 192 196 202 184 223 219 208 225 209 193 222 222 242 284 155 231 225 198 201 155 120 162 153 168 189 151 176 201 192 212 232 223 226 226 230 225 183 164 172 180 184
224 221 220 220 219 217 216 216 217 219 221 223 224 226 228 226 225 222 220 222 224 226 225 226 224 223 225 218 215 192 180 214 48 291 235 221 214 210 210 211 201 191 180 176 177 171 191 183 191 193 168 217 223 218 218 199 195 236 234 236 245 217 241 311 164 175 159 183 187 178 179 141 160 209 207 203 223 223 83 129 233 244 221 145 156 168 179 190
225 221 220 220 219 217 214 214 215 217 219 220 222 224 226 227 227 224 220 219 220 223 224 224 221 219 219 209 211 207 208 240 254 346 248 220 214 207 206 206 196 186 177 168 153 164 203 196 199 194 180 213 224 221 214 184 200 235 244 232 208 217 234 328 46 175 182 202 197 160 154 181 203 219 189 211 230 210 98 78 95 219 141 136 156 172 187 194
225 221 221 220 218 217 214 213 213 214 217 218 218 221 223 225 226 224 221 217 217 221 223 224 219 216 214 198 201 225 231 240 241 281 296 215 212 204 202 201 196 188 177 175 165 157 163 208 209 190 199 210 208 213 206 192 210 227 243 242 179 211 226 136 52 192 197 208 155 166 203 215 208 229 202 219 235 219 147 108 102 132 151 161 176 183 194 197
224 223 222 219 217 216 213 212 212 212 214 215 216 217 220 221 222 223 221 218 216 218 222 223 218 214 212 200 201 236 236 242 241 242 155 202 204 199 198 194 193 188 178 177 172 164 158 200 212 150 209 217 214 216 200 206 219 215 233 241 173 218 216 183 213 195 199 208 171 208 225 227 155 330 257 232 236 215 164 162 138 142 170 181 189 189 195 202
224 223 222 217 214 214 212 210 210 209 211 213 213 214 217 218 218 219 218 216 215 216 221 220 216 212 208 200 207 236 244 251 241 233 224 211 203 196 194 192 188 180 172 169 164 165 176 183 156 97 357 278 266 242 207 211 225 199 226 239 215 231 197 192 229 191 191 219 199 221 234 213 112 230 241 228 222 186 181 203 188 182 198 192 196 195 198 207
225 223 220 216 212 211 210 209 208 207 208 211 211 212 214 215 214 215 214 213 212 214 219 217 213 209 203 196 210 231 239 236 234 230 231 231 214 200 194 194 190 179 166 164 165 171 184 170 131 105 312 268 303 276 237 238 282 211 221 241 231 233 219 203 224 196 188 216 198 223 251 195 137 215 233 221 119 163 202 212 199 211 222 206 203 198 199 210
226 222 219 217 212 208 208 207 206 205 206 209 210 209 210 211 210 210 209 209 210 213 216 215 211 207 200 201 224 226 197 84 254 222 224 234 219 204 200 202 200 189 173 162 161 163 163 151 142 150 199 147 261 277 297 293 277 233 211 243 235 228 234 216 204 190 196 209 172 191 260 235 212 214 217 221 155 159 209 217 208 216 226 219 211 205 205 208
225 222 216 215 210 207 208 204 204 204 204 206 208 207 206 207 207 206 205 204 206 210 213 213 208 203 200 217 237 233 228 245 302 282 232 230 219 209 204 202 201 193 181 163 148 148 138 140 157 168 117 79 185 285 315 304 263 221 218 248 240 236 239 213 186 169 192 205 152 178 252 240 230 216 189 207 200 173 216 223 216 220 225 224 215 216 217 206
223 221 214 212 208 206 207 203 202 203 203 205 205 205 203 202 203 202 201 202 203 206 209 210 203 191 205 239 252 241 237 247 257 267 253 219 211 219 203 193 190 183 175 158 144 150 141 131 137 127 77 118 354 332 323 313 265 221 215 241 236 242 237 190 174 171 189 200 149 194 248 251 246 220 178 199 204 200 229 229 220 220 222 227 219 223 227 213
222 218 213 211 207 205 205 201 199 201 202 203 202 202 200 197 198 197 198 201 202 203 203 206 195 175 221 255 258 247 235 244 243 236 236 215 197 200 194 175 164 157 157 148 136 141 139 129 128 123 127 131 332 317 338 335 288 233 215 224 225 232 227 177 173 185 199 199 161 200 238 250 256 237 178 189 200 211 234 235 229 224 218 224 223 224 231 225
219 216 215 212 207 204 202 199 198 198 200 200 198 197 195 193 192 192 194 197 201 200 196 198 187 180 229 248 251 247 226 226 224 215 223 214 201 196 177 149 134 128 125 127 125 127 131 126 125 141 127 118 184 225 252 246 269 247 230 229 221 218 224 211 180 195 204 178 180 212 235 248 254 241 174 184 196 208 230 236 234 231 224 223 224 224 229 233
217 214 214 210 205 203 200 198 196 195 197 196 193 189 188 188 186 187 189 193 202 195 184 181 169 179 253 261 246 234 207 205 202 202 217 214 205 192 169 144 125 116 108 114 116 115 121 122 123 147 139 155 175 188 222 214 215 232 236 236 231 221 218 215 179 187 203 199 204 214 232 248 251 229 148 176 202 208 224 234 236 236 235 229 223 224 230 237
216 213 212 206 203 201 198 197 193 193 193 190 186 182 178 178 177 178 179 179 184 173 164 163 158 172 249 246 232 219 193 184 178 191 206 206 198 187 177 156 131 121 110 111 111 104 108 117 142 176 175 183 178 177 209 214 205 209 220 230 236 228 218 219 207 164 180 211 223 214 222 241 250 246 201 165 182 213 229 234 239 240 242 240 230 232 236 238
214 212 210 205 201 197 196 194 191 191 189 183 175 169 164 164 166 169 167 162 163 164 168 176 171 178 248 237 220 209 165 172 176 185 187 185 187 190 188 159 144 139 133 157 153 131 127 114 158 192 195 195 188 192 209 216 210 210 218 226 232 231 223 223 220 166 177 207 220 219 224 231 244 249 233 201 176 206 236 239 245 245 244 248 241 238 238 238
213 210 208 205 200 196 195 192 189 188 184 171 157 154 156 155 158 182 176 176 194 196 157 171 187 208 327 10 195 192 173 172 182 182 181 182 177 185 193 161 158 164 163 169 160 148 145 156 190 197 202 203 197 203 214 223 232 229 227 230 231 231 230 217 212 173 186 221 223 221 232 234 243 250 244 236 213 209 234 237 243 247 242 243 242 241 237 237
212 207 206 204 199 196 194 189 187 184 176 164 155 153 170 169 166 185 177 190 208 211 229 173 194 218 239 22 86 174 170 177 201 181 179 180 167 171 190 170 174 186 184 170 141 144 166 192 213 210 210 210 206 211 218 226 235 239 239 239 234 232 237 216 201 171 160 230 236 223 235 240 244 253 249 241 232 227 234 235 238 243 242 239 238 242 241 239
212 209 205 201 197 195 192 187 184 178 169 163 165 174 182 171 145 136 158 181 211 214 247 212 207 230 236 303 4 173 185 194 211 190 174 172 165 178 189 179 187 191 188 175 138 157 184 206 216 212 217 221 219 217 217 226 232 237 244 244 237 227 227 215 195 156 153 223 243 225 243 249 245 252 252 242 238 236 237 239 239 241 242 240 237 239 240 242
213 209 203 198 194 192 190 185 180 172 167 167 176 183 164 163 141 135 150 160 199 199 227 227 224 235 236 264 316 244 219 200 199 197 178 173 173 187 193 189 193 191 186 184 178 184 192 206 210 208 216 221 222 218 218 228 233 233 235 234 234 216 208 220 204 159 170 228 274 271 264 259 246 250 251 243 240 241 241 242 242 241 243 244 244 244 242 243
211 205 201 197 192 191 189 182 171 167 171 175 178 170 156 159 150 146 147 122 184 182 210 215 221 232 229 242 232 217 230 215 208 197 179 181 178 179 196 198 195 199 192 188 192 199 201 195 191 199 211 214 218 216 215 226 234 232 231 233 236 213 209 222 184 144 191 233 254 294 280 264 243 243 248 241 231 231 236 240 243 240 238 244 247 248 247 246
209 205 201 195 190 188 182 174 167 169 173 173 172 162 159 159 148 144 135 79 211 166 200 198 200 229 216 192 183 198 231 231 226 197 178 187 183 169 196 203 197 202 191 188 195 204 207 176 147 183 203 208 218 221 214 212 226 234 228 229 235 217 210 210 151 148 231 241 200 201 263 267 237 232 239 238 230 227 224 228 237 238 232 234 242 245 243 241
207 205 199 191 187 181 175 171 168 170 170 168 169 162 161 161 146 136 122 12 250 170 169 172 166 202 198 180 167 163 240 231 207 188 183 194 190 175 192 190 199 209 184 178 194 207 210 189 167 192 199 204 219 227 216 205 218 237 221 219 224 220 213 196 167 184 234 252 194 179 239 266 254 234 233 229 232 233 225 225 233 237 236 233 234 239 238 234
204 204 196 189 183 177 172 163 164 167 167 165 165 159 163 165 147 132 139 282 253 167 155 167 167 182 182 171 157 163 228 191 163 181 188 201 202 191 202 191 183 211 181 164 198 192 184 190 202 212 204 207 220 224 211 202 216 236 219 211 210 214 218 196 180 210 227 243 193 189 231 269 268 249 231 222 234 239 234 232 232 232 237 238 236 237 235 230
205 200 193 187 179 177 174 157 158 164 154 151 154 153 156 158 148 139 166 211 216 144 148 170 168 155 165 161 158 184 237 120 145 190 182 191 201 197 212 207 196 189 175 177 199 183 174 187 199 205 203 211 221 218 201 197 218 236 218 207 204 209 215 199 194 221 221 207 240 216 188 261 266 247 210 218 236 246 240 232 231 229 231 236 237 238 236 231
203 197 193 184 175 175 173 160 158 155 145 146 146 147 145 146 147 140 182 199 153 121 145 161 164 156 160 162 172 198 221 177 174 193 166 180 201 207 221 219 215 198 179 190 207 191 181 195 195 194 200 209 214 214 198 198 218 221 194 201 202 205 211 204 211 218 194 222 241 218 173 229 267 250 200 210 228 242 243 233 232 232 232 236 238 235 232 229
198 195 192 179 168 166 162 156 156 147 146 147 142 142 141 141 147 151 184 196 135 133 138 157 175 171 163 166 187 200 204 201 190 152 162 173 192 208 258 257 232 216 193 200 216 213 182 193 195 191 201 208 207 205 200 208 213 182 172 190 172 126 184 216 233 212 200 227 238 217 181 204 264 257 210 215 221 222 233 238 234 233 234 236 238 232 226 227
196 195 188 174 164 162 155 146 151 150 150 148 141 139 142 147 163 178 184 166 75 142 138 168 176 165 164 172 191 196 199 204 192 178 185 179 183 197 218 247 228 213 200 203 216 216 203 176 178 182 192 193 189 197 207 211 198 167 173 182 160 154 169 85 207 200 213 228 233 219 187 191 244 251 199 220 222 204 217 233 232 232 234 235 236 233 229 229
194 192 183 172 166 164 159 150 150 151 151 147 141 140 148 156 183 197 173 104 138 175 165 175 180 172 173 180 187 186 190 202 199 193 196 197 197 199 202 202 190 188 193 194 201 208 211 201 175 172 184 181 173 186 205 195 180 184 185 175 173 177 179 192 200 190 217 241 240 211 177 188 239 248 236 233 225 202 211 226 233 236 239 236 232 231 227 225
191 186 179 171 165 161 157 151 148 148 148 145 141 146 156 162 190 197 175 148 167 182 159 167 177 178 179 185 190 180 184 201 196 193 201 205 209 211 207 199 197 212 200 185 193 194 207 212 189 181 181 179 178 180 187 173 178 194 188 179 187 180 180 199 192 152 210 246 256 188 167 205 249 249 247 243 240 225 211 220 231 234 238 238 234 233 234 230
187 181 174 169 162 156 153 151 148 147 147 145 140 155 166 179 188 186 190 195 234 177 159 158 165 176 184 193 194 174 181 208 196 187 199 206 216 224 215 201 198 214 214 183 196 189 201 214 189 183 173 170 187 194 181 168 181 197 192 193 201 187 192 203 190 191 199 217 236 165 170 222 242 234 245 241 250 246 216 221 236 246 254 257 269 271 257 246
180 173 168 160 152 151 152 151 150 148 146 145 151 160 172 188 182 181 194 199 195 166 166 160 161 175 190 197 196 182 185 205 192 191 201 203 215 222 216 207 198 203 195 183 197 188 208 228 178 182 178 169 186 197 180 171 186 198 195 205 211 201 199 201 194 202 196 214 215 176 207 258 251 291 297 247 260 250 227 231 242 256 257 249 256 253 242 241
169 164 162 151 144 149 153 153 150 150 148 143 156 172 188 193 177 175 186 179 156 144 153 161 167 178 191 196 198 193 196 201 183 191 208 207 221 224 213 208 193 204 206 186 178 178 206 224 169 178 190 182 189 190 178 180 181 181 198 207 219 235 204 177 174 87 132 234 217 163 236 265 273 283 259 227 231 238 226 220 224 240 241 230 240 241 233 236
158 157 156 146 148 152 154 154 151 151 152 141 160 183 191 192 165 161 172 161 150 147 150 165 178 181 189 191 195 193 196 201 184 188 203 201 219 225 217 215 181 200 219 211 214 195 200 215 174 175 189 193 190 182 183 192 176 165 199 192 164 276 215 170 207 166 169 228 214 169 221 240 242 263 227 203 214 228 227 217 219 232 230 231 243 239 234 242
151 152 147 148 154 154 154 156 153 151 150 147 173 188 180 186 179 170 169 155 157 167 168 182 189 186 190 186 195 193 188 192 187 188 199 194 206 205 204 216 184 191 212 220 235 254 200 221 186 183 190 187 180 180 190 200 181 172 208 185 159 209 195 188 213 187 182 218 229 213 223 229 225 229 191 182 198 219 232 225 224 232 227 233 248 242 230 233
149 150 141 152 155 154 155 156 152 147 150 162 182 188 174 190 188 171 168 162 168 185 191 200 193 188 193 188 197 192 185 191 187 187 200 190 192 189 185 195 191 188 203 209 217 268 212 217 216 195 185 165 167 189 194 193 189 297 234 197 197 236 198 194 201 184 190 206 232 236 232 236 231 218 203 195 189 205 229 226 223 235 235 235 244 240 221 216
146 138 122 153 153 154 155 152 143 149 157 170 184 174 162 181 181 166 204 173 170 188 204 204 188 184 195 196 203 192 188 197 189 190 207 188 185 193 182 184 186 183 193 199 204 224 226 217 224 197 170 160 178 195 190 186 183 186 200 196 196 222 226 197 196 208 208 203 222 241 243 246 240 189 196 211 198 191 211 213 211 228 231 229 235 239 225 209
133 111 137 153 152 151 149 141 136 154 150 173 180 169 154 162 166 174 256 213 163 79 220 197 188 190 191 195 207 195 191 201 195 197 210 196 201 210 185 180 178 170 175 194 203 204 206 214 213 205 177 181 193 196 193 190 183 184 193 191 191 196 192 188 196 203 212 212 213 231 249 248 228 148 188 207 204 199 206 210 213 223 225 226 229 226 222 222
127 124 143 151 150 147 143 131 138 154 172 180 169 165 154 147 159 173 141 55 135 42 48 160 185 192 196 202 211 198 192 200 200 202 209 207 211 212 184 179 176 163 158 186 203 194 175 204 207 220 226 203 201 201 198 192 189 194 200 194 195 196 193 200 201 189 195 213 214 241 266 263 147 156 188 195 203 209 209 209 219 229 230 230 225 208 221 237
100 121 143 151 152 148 141 142 143 161 188 153 141 149 147 140 152 168 168 179 189 150 144 174 176 188 203 202 192 197 204 204 201 204 211 213 215 211 192 182 176 166 161 178 194 186 148 193 194 202 249 248 288 344 197 191 191 201 210 197 196 201 205 212 209 183 193 203 203 228 251 250 168 165 188 206 224 227 218 207 218 230 233 234 229 214 218 232
93 106 135 154 157 155 150 151 156 177 177 147 154 161 125 133 167 171 183 187 180 153 178 198 189 194 211 166 161 195 205 208 207 208 212 215 213 206 199 192 180 173 174 176 176 176 182 194 189 189 191 212 254 214 195 188 185 197 206 199 196 202 203 194 96 196 208 205 204 219 244 248 217 140 165 204 257 246 237 208 216 234 239 238 235 222 223 240
115 95 20 156 160 159 153 154 163 174 165 151 169 173 142 131 179 178 178 181 172 161 190 206 173 168 172 115 24 217 206 210 214 213 216 221 216 202 203 201 191 184 185 174 164 172 190 194 198 204 199 192 198 203 199 187 183 192 200 200 198 198 196 186 184 202 205 205 204 215 237 241 153 119 186 198 200 230 232 213 222 249 248 248 254 257 251 262
133 129 105 96 151 161 150 79 140 156 158 158 170 178 178 182 177 122 165 182 173 161 196 299 138 159 180 195 233 268 236 237 241 217 213 215 217 203 194 194 199 199 185 157 144 157 197 209 207 218 230 227 204 193 164 162 179 192 195 197 199 198 196 194 197 200 200 208 211 220 236 240 217 183 192 192 201 215 217 207 209 233 244 247 256 277 279 264
98 134 147 116 113 158 150 53 148 154 163 172 170 173 189 193 175 141 184 207 170 160 199 330 165 188 192 191 212 232 235 253 277 259 213 207 210 234 187 184 198 200 181 155 146 144 185 225 208 212 232 242 258 67 129 160 186 199 197 195 198 200 198 199 207 206 197 206 224 228 233 244 246 229 191 175 202 214 218 217 212 221 239 247 255 268 269 260
77 85 161 122 129 162 177 187 185 173 164 172 169 162 186 193 189 185 193 169 144 169 195 215 207 214 212 196 202 222 219 228 254 259 231 204 190 160 182 193 203 192 175 169 167 148 130 241 217 217 226 229 230 66 147 180 201 210 207 201 200 200 199 202 211 211 201 207 226 227 224 235 247 242 207 177 189 207 220 225 223 230 226 226 249 257 259 257
112 82 46 344 74 166 173 164 163 168 170 175 183 180 182 191 197 195 158 122 164 198 202 216 214 212 219 212 202 218 213 206 226 238 235 210 188 164 167 194 217 199 181 183 185 166 170 205 209 237 235 227 220 56 150 194 217 220 217 214 209 205 204 207 213 216 212 215 231 239 237 239 246 246 226 188 175 195 221 236 289 280 243 215 231 244 248 250
172 123 136 63 63 150 154 130 146 173 182 182 197 200 188 195 199 190 159 163 187 185 191 216 218 205 216 220 216 224 217 203 215 220 208 201 198 187 184 180 178 188 192 199 199 185 199 192 164 165 255 242 240 277 269 264 256 232 219 214 210 207 207 210 217 222 217 219 236 246 248 248 250 246 224 171 159 190 224 241 242 249 244 229 230 235 243 249
116 102 131 132 113 140 153 148 159 182 191 192 204 199 195 206 200 186 187 194 196 190 191 208 215 207 217 224 225 231 225 214 220 219 203 201 205 201 199 185 171 171 184 201 191 169 193 201 160 158 255 257 238 245 260 281 292 275 245 221 208 206 208 209 216 218 208 210 228 238 243 249 251 234 176 153 163 190 211 218 223 237 235 230 231 225 228 253
126 96 125 138 122 136 158 159 165 185 196 203 207 195 198 211 195 183 199 205 206 214 207 203 206 203 216 224 227 233 232 227 231 227 206 203 203 195 209 205 187 175 174 188 187 170 189 203 175 167 224 253 245 233 238 261 272 269 251 221 205 202 205 210 218 220 212 210 220 227 233 242 245 146 191 201 185 188 203 205 210 228 230 229 231 220 217 239